www.pogodaiklimat.ru

Погода и климат >> Архив погоды >> Россия >> Астраханская область >> Астрахань


АРХИВ ПОГОДЫ в Астрахани

Время (UTC), дата Ветер
(напр.,м/с)
 
Видим.   Явления Облачность Т
(С)
Тd
(С)
f
(%)
Тe
(С)
Тes
(С)
Комфортность P
(гПа)
Po
(гПа)
Тmin
(С)
Tmax
(С)
R
(мм)
R24
(мм)
S
(см)
06 17.05 ЮЗ 1 10 км 9/8 600 м
[Cb cap Ac trans]
+20.9 +10.2 50 +24 +26 комфорт 1016.1 1018.6
09 17.05 СЗ 1 10 км 9/8 600 м
[Cb cap Ac trans]
+24.0 +7.1 34 +24 +27 комфорт 1015.9 1018.3
12 17.05 СВ 2 10 км 10/8 600 м
[Cb cap Ac cuf Cs]
+23.9 +6.5 33 +24 +25 комфорт 1015.8 1018.2
15 17.05 В 3 10 км 9/3 600 м
[Sc diur, vesp Ac trans Ci fib]
+20.5 +10.0 51 +22 +23 комфорт 1016.5 1019.0 +24.5
18 17.05 В 2 10 км 6/0
[Ac trans]
+16.6 +11.2 70 +17 +17 по сезону 1017.5 1020.0
21 17.05 С 1 4000 м 3/0
[Ci fib]
+13.0 +11.6 91 +13 +13 по сезону 1017.1 1019.6
00 18.05 В 2 4000 м дымка {ливн. осадки} ясно +11.0 +10.3 95 +10 +10 прохладно 1016.6 1019.2
03 18.05 В 2 4000 м дымка {ливн. осадки} ясно +11.0 +10.3 95 +10 +11 холодно 1016.6 1019.2
06 18.05 В 1 4000 м дымка 4/0
[Ci fib]
+14.1 +12.8 92 +14 +27 опасность
простуды
1017.5 1020.0 +10.0
09 18.05 ЮВ 3 10 км 8/3 1000 м
[Cu med, cong Ci fib]
+25.1 +10.2 39 +24 +33 комфорт 1016.6 1019.0
12 18.05 Ю 5
{10}
10 км 8/3 1000 м
[Cu med, cong Ci fib]
+24.1 +7.0 33 +24 +28 комфорт 1016.6 1019.0
15 18.05 ЮВ 4 10 км 8/0
[Ac trans Ci fib]
+20.4 +7.6 44 +22 +22 комфорт 1017.2 1019.7 +25.2
18 18.05 В 1 10 км 9/0
[Ac trans]
+17.2 +9.3 60 +18 +18 тепло 1017.3 1019.8
21 18.05 В 1 10 км 10/4 600 м
[Cb calv Ac As]
+16.7 +12.0 74 +18 +18 тепло 1016.4 1018.9
00 19.05 СВ 1 10 км 10/5 600 м
[Cb calv Ac As]
+16.3 +12.7 79 +17 +17 тепло 1015.0 1017.5
03 19.05 В 1 10 км {ливн. осадки} 10/10 300 м
[Cb calv]
+17.4 +13.8 79 +18 +18 тепло 1013.7 1016.2 +16.1 0.1
06 19.05 В 1 10 км слабый ливневой дождь 10/10 600 м
[Cb cap]
+18.6 +14.5 77 +20 +20 по сезону 1013.0 1015.5
09 19.05 В 4
{10}
10 км в посл. час ливневой дождь 10/8 600 м
[Cb cap Ac As]
+20.1 +12.0 60 +22 +23 комфорт 1011.9 1014.3
12 19.05 ЮВ 4
{11}
10 км {ливн. осадки} 9/9 600 м
[Cb cap]
+19.4 +12.5 64 +21 +21 комфорт 1010.8 1013.3
15 19.05 ЮВ 2 10 км 10/10 600 м
[Cb cap]
+17.5 +13.5 77 +18 +18 прохладно 1010.9 1013.3 +21.2 0.1
18 19.05 ЮВ 1 4000 м дымка 8/0
[Ac trans Ci fib]
+15.2 +13.3 88 +16 +16 по сезону 1011.7 1014.2
21 19.05 штиль 0 2000 м дымка 4/0
[Ac trans Ci fib]
+13.6 +12.7 94 +13 +13 по сезону 1010.5 1013.1
00 20.05 СВ 2 2000 м дымка 8/5 300 м
[St Ac trans]
+14.6 +13.9 96 +14 +14 по сезону 1009.2 1011.7
03 20.05 СВ 3 10 км 9/0
[Ac trans Ci fib]
+17.4 +14.5 83 +17 +18 по сезону 1007.8 1010.2 +12.8
06 20.05 С 3 10 км 8/0
[Cc]
+21.8 +12.8 57 +24 +33 комфорт 1006.4 1008.9
09 20.05 В 1 10 км 10/3 1000 м
[Cu hum Cs]
+24.4 +12.2 46 +26 +38 жарко 1005.3 1007.8
12 20.05 В 2 10 км слабый ливневой дождь 9/4 600 м
[Cb cap Ac As Ci fib]
+23.0 +13.1 54 +26 +30 жарко 1003.6 1006.0
15 20.05 В 1 10 км {ливн. осадки} 10/4 600 м
[Sc diur, vesp Ac As]
+19.5 +14.5 73 +22 +23 комфорт 1003.2 1005.6 +24.7
18 20.05 З 1 4000 м дымка {ливн. осадки} 8/0
[Ac trans Ci fib]
+16.4 +14.7 90 +17 +17 по сезону 1003.9 1006.4
21 20.05 З 3 10 км 10/6 600 м
[Sc Ac As]
+16.8 +13.0 78 +17 +17 тепло 1004.8 1007.3
00 21.05 З 4 10 км {ливн. осадки} 8/3 600 м
[Cb cap Ac trans Ci fib]
+14.2 +11.8 85 +13 +13 по сезону 1003.7 1006.2
03 21.05 З 3 4000 м дымка 9/8 300 м
[St Ac lent Ci sp]
+14.0 +11.8 87 +13 +13 прохладно 1004.9 1007.4 +13.4 0.0
06 21.05 З 4 10 км 8/8 600 м
[Cb cap]
+17.9 +10.9 64 +18 +19 прохладно 1005.0 1007.5
09 21.05 ЮЗ 4 10 км 5/1 1000 м
[Cu hum Ac trans Ci fib]
+21.6 +7.7 41 +23 +31 комфорт 1004.5 1007.0
12 21.05 ЮЗ 5
{11}
10 км 8/3 1000 м
[Cu hum Ac trans Ci fib]
+23.1 +4.6 30 +23 +26 комфорт 1003.9 1006.3
15 21.05 З 3
{10}
10 км 8/0
[Ac trans Ci fib]
+21.8 +4.7 33 +22 +23 комфорт 1004.0 1006.4 +23.4
18 21.05 З 2 10 км 4/3 600 м
[Sc Ac trans]
+17.8 +7.6 51 +18 +18 по сезону 1005.3 1007.8
21 21.05 ЮЗ 3 10 км 9/0
[Ac trans]
+17.0 +9.0 59 +17 +17 тепло 1005.1 1007.6
00 22.05 ЮЗ 3 10 км ясно +15.3 +11.3 77 +15 +15 по сезону 1005.3 1007.7
03 22.05 ЮЗ 3 10 км 9/8 600 м
[Cb cap Ac trans Cc]
+16.1 +11.3 73 +16 +16 по сезону 1005.7 1008.1 +14.5
06 22.05 З 3 10 км {ливн. осадки} 3/1 1000 м
[Cu hum Ac trans]
+19.6 +10.7 56 +21 +29 комфорт 1005.9 1001.3
09 22.05 ЮЗ 6-11
{11}
10 км 8/8 1000 м
[Cu hum]
+22.7 +7.6 38 +24 +25 комфорт 1005.3 1007.8
12 22.05 З 4
{12}
10 км 8/8 600 м
[Cb calv]
+24.5 +5.7 30 +24 +26 комфорт 1004.8 1007.2
15 22.05 З 4 10 км 9/3 600 м
[Cb calv Ac trans Ci fib]
+23.3 +6.0 33 +24 +24 комфорт 1005.6 1008.1 +24.8
18 22.05 ЮЗ 2 10 км 9/5 600 м
[Cb calv Ac trans Ci fib]
+19.4 +8.5 49 +21 +21 комфорт 1007.6 1010.0
21 22.05 З 2 10 км 9/4 600 м
[Cb calv Ci fib]
+17.2 +10.4 64 +18 +18 тепло 1007.8 1010.3
00 23.05 З 2 10 км 5/0
[Ci fib]
+14.4 +11.3 82 +14 +14 по сезону 1008.3 1010.8
03 23.05 СЗ 1 10 км 9/5 600 м
[Cb calv Ac trans Ci fib]
+14.7 +10.8 77 +15 +16 прохладно 1010.2 1012.7 +14.1
06 23.05 С 2 10 км слабый ливневой дождь 9/8 300 м
[Cb cap Ac trans]
+16.8 +11.0 69 +17 +19 холодно 1012.0 1014.5
09 23.05 СЗ 2 10 км {ливн. осадки} 9/8 300 м
[Cb cap Ac trans]
+16.1 +10.6 70 +16 +19 очень
холодно
1013.6 1016.1
12 23.05 С 1 10 км слабый ливневой дождь 9/8 300 м
[Cb cap Ac trans]
+15.7 +9.6 67 +16 +18 очень
холодно
1013.8 1016.4
15 23.05 СЗ 1 10 км {ливн. осадки} 9/3 600 м
[Cb cap Ac trans Ci fib]
+17.4 +6.9 50 +18 +19 прохладно 1014.2 1016.7 +18.6 0.0
18 23.05 З 1 10 км {ливн. осадки} 5/0
[Ac trans Ci fib]
+12.2 +8.8 80 +12 +12 холодно 1015.6 1018.1
21 23.05 СЗ 2 10 км 3/0
[Ci fib]
+12.6 +8.1 74 +12 +12 прохладно 1016.2 1018.7
00 24.05 С 2 10 км 3/0
[Ci fib]
+12.1 +6.1 67 +11 +11 прохладно 1016.6 1019.1
03 24.05 СВ 3 10 км 8/0
[Ac trans Cc]
+13.5 +3.3 50 +13 +14 холодно 1017.8 1020.3 +12.0

 

Местоположение метеостанции Астрахань (Астраханская область, Россия): широта 46.28 долгота 47.98 высота над уровнем моря -21 м.

В архиве по умолчанию представлена погода в Астрахани за последнюю неделю. Архивные данные за месяц целиком и за предыдущие месяцы, начиная с января 2011 года, Вы можете получить, выбрав интересующий диапазон дат из раскрывающегося списка и нажав кнопку "Ввод!".

Внимание! Время в таблицах - всемирное. Для получения местного времени необходимо прибавить поправку, которая в Астрахани равна 4 ч.

Смотрите также архив погоды в соседних городах и на ближайших метеорологических станциях:

Погода в Зеленге (Астраханская область, Россия) (50 км)
Погода в Досанге (Астраханская область, Россия) (71 км)
Погода в Лимане (Астраханская область, Россия) (79 км)
Погода в Ганюшкино (Атырауская область, Казахстан) (105 км)
Погода в Лагани (Калмыкия, Россия) (109 км)
Погода в Харабали (Астраханская область, Россия) (136 км)
Погода в Утте (Калмыкия, Россия) (151 км)
Погода в Юсте (Калмыкия, Россия) (158 км)
Погода в Исатай (Атырауская область, Казахстан) (170 км)
Погода в Артезиане (Калмыкия, Россия) (177 км)

Пояснения к столбцам:

Ветер - указаны скорость ветра в м/с - средняя за 10 мин, порывы в срок и между сроками (в фигурных скобках) и направление, откуда дует ветер: С - северный, СВ - северо-восточный, В - восточный, ЮВ - юго-восточный, Ю - южный, ЮЗ - юго-западный, З - западный, СЗ - северо-западный.
Видимость - горизонтальная дальность видимости в метрах или километрах. При видимости от 1 до 10 км при отсутствии осадков обычно наблюдается дымка, при ухудшении видимости до 1 км и менее - туман. В сухую погоду видимость может ухудшаться дымом, пылью или мглою.
Явления - указаны атмосферные явления, наблюдавшиеся в срок или в последний час перед сроком; фигурными скобками обозначены явления, наблюдавшиеся между сроками (за 1-3 часа до срока); квадратными скобками обозначены град или гололедные отложения с указанием их диаметра в мм.
Облачность - указаны через наклонную черту общая и нижняя облачность в баллах и высота нижней границы облаков в метрах; квадратными скобками обозначены формы облаков: Ci - перистые, Cs - перисто-слоистые, Cc - перисто-кучевые, Ac - высококучевые, As - высокослоистые, Sc - слоисто-кучевые, Ns - слоисто-дождевые, Cu - кучевые, Cb - кучево-дождевые. Подробнее классификацию облаков см. в Атласе облаков (PDF).
T - Температура воздуха - температура, измеренная на высоте 2 м над землей.
Td - Температура точки росы - температура, при понижении до которой содержащийся в воздухе водяной пар достигнет насыщения.
f - Относительная влажность воздуха - влажноcть воздуха, измеренная на высоте 2 м над землей.
Te - Эффективная температура - температура, которую ощущает одетый по сезону человек в тени. Характеристика душности погоды. При расчете учитывается влияние влажности воздуха и скорости ветра на теплоощущения человека.
Tes - Эффективная температура на солнце - температура, которую ощущает человек, с поправкой на солнечный нагрев. Характеристика знойности погоды. Зависит от высоты солнца над горизонтом, облачности и скорости ветра. Ночью, в пасмурную погоду, а также при ветре 12 м/с и более поправка равна нулю.
P - Атмосферное давление - приведенное к уровню моря атмосферное давление.
Po - Атмосферное давление - измеренное на уровне метеостанции атмосферное давление.
Tmin - Минимальная температура - минимум температуры воздуха на высоте 2 м над землей.
Tmax - Максимальная температура - максимум температуры воздуха на высоте 2 м над землей.
R - Количество осадков - Количество выпавших осадков за период времени, мм. При наведении курсора мыши на число - период времени, за который выпало указанное количество осадков.
R24 - Количество осадков - Количество выпавших осадков за 24 часа, мм.
S - Снежный покров - Высота снежного покрова, см. При наведении курсора мыши на число - состояние снежного покрова и степень покрытия местности в баллах.